Location: Lane
(33.5226°N, 79.8788°W)
Time: 10:33:37
(UTC+00:00)

Altair - Pass Details

Date: 11 October 2022
Orbit: 1501 x 1682 km, 47.2° (Epoch: 30 November)

Event Time Altitude Azimuth Distance (km) Brightness Sun altitude
Rises 11:13:29 0° 291° (WNW) 4,787 - -2.4°
Exits shadow 11:13:52 - 292° (WNW) 4,679 9.4 -2.3°
Reaches altitude 10° 11:16:56 10° 300° (WNW) 3,829 9.0 -1.7°
Maximum altitude 11:25:50 37° 5° (N) 2,368 8.5 0.1°
Drops below altitude 10° 11:34:59 10° 70° (ENE) 3,932 10.9 2.0°
Sets 11:38:34 0° 79° (E) 4,929 11.7 2.7°
